Time,TemperatureF,DewpointF,PressureIn,WindDirection,WindDirectionDegrees,WindSpeedMPH,WindSpeedGustMPH,Humidity,HourlyPrecipIn,Conditions,Clouds,dailyrainin,SolarRadiationWatts/m^2,SoftwareType,DateUTC
2013-04-10 00:03:00,66.0,47.0,-100.00,NW,312,10.0,17.0,51,0.00,,,0.02,0.000000,,2013-04-10 04:03:00,
2013-04-10 00:13:00,66.0,47.0,-100.00,NW,312,10.0,17.0,51,0.00,,,0.02,0.000000,,2013-04-10 04:13:00,
2013-04-10 00:33:00,67.0,48.0,-100.00,NNW,345,9.0,19.0,51,0.00,,,0.02,0.000000,,2013-04-10 04:33:00,
2013-04-10 00:43:00,67.0,48.0,-100.00,NNW,345,9.0,19.0,51,0.00,,,0.02,0.000000,,2013-04-10 04:43:00,
2013-04-10 00:53:00,67.0,48.0,-100.00,NNW,345,9.0,19.0,51,0.00,,,0.02,0.000000,,2013-04-10 04:53:00,
2013-04-10 01:03:00,67.0,48.0,-100.00,NNW,345,9.0,19.0,51,0.00,,,0.02,0.000000,,2013-04-10 05:03:00,
2013-04-10 01:13:00,67.0,48.0,-100.00,NNW,345,9.0,19.0,51,0.00,,,0.02,0.000000,,2013-04-10 05:13:00,
2013-04-10 01:33:00,66.0,48.0,-100.00,North,358,10.0,22.0,53,0.00,,,0.02,0.000000,,2013-04-10 05:33:00,
2013-04-10 01:43:00,66.0,48.0,-100.00,North,358,10.0,22.0,53,0.00,,,0.02,0.000000,,2013-04-10 05:43:00,
2013-04-10 01:53:00,66.0,48.0,-100.00,North,358,10.0,22.0,53,0.00,,,0.02,0.000000,,2013-04-10 05:53:00,
2013-04-10 02:03:00,66.0,48.0,-100.00,North,358,10.0,22.0,53,0.00,,,0.02,0.000000,,2013-04-10 06:03:00,
2013-04-10 02:12:00,66.0,48.0,-100.00,North,358,10.0,22.0,53,0.00,,,0.02,0.000000,,2013-04-10 06:12:00,
2013-04-10 02:43:00,66.0,49.0,-100.00,North,0,12.0,22.0,54,0.00,,,0.02,0.000000,,2013-04-10 06:43:00,
2013-04-10 02:52:00,66.0,49.0,-100.00,North,0,12.0,22.0,54,0.00,,,0.02,0.000000,,2013-04-10 06:52:00,
2013-04-10 03:02:00,66.0,49.0,-100.00,North,0,12.0,22.0,54,0.00,,,0.02,0.000000,,2013-04-10 07:02:00,
2013-04-10 03:12:00,66.0,49.0,-100.00,North,0,12.0,22.0,54,0.00,,,0.02,0.000000,,2013-04-10 07:12:00,
2013-04-10 03:43:00,65.0,50.0,-100.00,North,358,9.0,19.0,58,0.00,,,0.00,0.000000,,2013-04-10 07:43:00,
2013-04-10 03:52:00,65.0,50.0,-100.00,North,358,9.0,19.0,58,0.00,,,0.00,0.000000,,2013-04-10 07:52:00,
2013-04-10 04:02:00,65.0,50.0,-100.00,North,358,9.0,19.0,58,0.00,,,0.00,0.000000,,2013-04-10 08:02:00,
2013-04-10 04:12:00,65.0,50.0,-100.00,North,358,9.0,19.0,58,0.00,,,0.00,0.000000,,2013-04-10 08:12:00,
2013-04-10 04:43:00,62.0,47.0,-100.00,North,1,9.0,16.0,58,0.00,,,0.00,0.000000,,2013-04-10 08:43:00,
2013-04-10 04:52:00,62.0,47.0,-100.00,North,1,9.0,16.0,58,0.00,,,0.00,0.000000,,2013-04-10 08:52:00,
2013-04-10 05:02:00,62.0,47.0,-100.00,North,1,9.0,16.0,58,0.00,,,0.00,0.000000,,2013-04-10 09:02:00,
2013-04-10 05:12:00,62.0,47.0,-100.00,North,1,9.0,16.0,58,0.00,,,0.00,0.000000,,2013-04-10 09:12:00,
2013-04-10 05:43:00,59.0,48.0,-100.00,North,2,7.0,15.0,67,0.00,,,0.00,0.000000,,2013-04-10 09:43:00,
2013-04-10 05:53:00,59.0,48.0,-100.00,North,2,7.0,15.0,67,0.00,,,0.00,0.000000,,2013-04-10 09:53:00,
2013-04-10 06:03:00,59.0,48.0,-100.00,North,2,7.0,15.0,67,0.00,,,0.00,0.000000,,2013-04-10 10:03:00,
2013-04-10 06:13:00,59.0,48.0,-100.00,North,2,7.0,15.0,67,0.00,,,0.00,0.000000,,2013-04-10 10:13:00,
2013-04-10 06:33:00,59.0,48.0,-100.00,North,2,6.0,12.0,68,0.00,,,0.00,0.000000,,2013-04-10 10:33:00,
2013-04-10 06:43:00,59.0,48.0,-100.00,North,2,6.0,12.0,68,0.00,,,0.00,0.000000,,2013-04-10 10:43:00,
2013-04-10 06:53:00,59.0,48.0,-100.00,North,2,6.0,12.0,68,0.00,,,0.00,0.000000,,2013-04-10 10:53:00,
2013-04-10 07:03:00,59.0,48.0,-100.00,North,2,6.0,12.0,68,0.00,,,0.00,0.000000,,2013-04-10 11:03:00,
2013-04-10 07:12:00,59.0,48.0,-100.00,North,2,6.0,12.0,68,0.00,,,0.00,0.000000,,2013-04-10 11:12:00,
2013-04-10 09:43:00,63.0,51.0,-100.00,NW,309,4.0,9.0,66,-99.99,,,0.00,172.000000,,2013-04-10 13:43:00,
2013-04-10 09:53:00,63.0,51.0,-100.00,NW,309,4.0,9.0,66,-99.99,,,0.00,172.000000,,2013-04-10 13:53:00,
2013-04-10 10:02:00,63.0,51.0,-100.00,NW,309,4.0,9.0,66,-99.99,,,0.00,172.000000,,2013-04-10 14:02:00,
2013-04-10 10:12:00,63.0,51.0,-100.00,NW,309,4.0,9.0,66,-99.99,,,0.00,172.000000,,2013-04-10 14:12:00,
2013-04-10 10:33:00,68.0,54.0,-100.00,NNW,340,11.0,24.0,61,0.00,,,0.00,360.000000,,2013-04-10 14:33:00,
2013-04-10 10:42:00,68.0,54.0,-100.00,NNW,340,11.0,24.0,61,0.00,,,0.00,360.000000,,2013-04-10 14:42:00,
2013-04-10 10:52:00,68.0,54.0,-100.00,NNW,340,11.0,24.0,61,0.00,,,0.00,360.000000,,2013-04-10 14:52:00,
2013-04-10 11:03:00,68.0,54.0,-100.00,NNW,340,11.0,24.0,61,0.00,,,0.00,360.000000,,2013-04-10 15:03:00,
2013-04-10 11:12:00,68.0,54.0,-100.00,NNW,340,11.0,24.0,61,0.00,,,0.00,360.000000,,2013-04-10 15:12:00,
2013-04-10 12:33:00,72.0,53.0,-100.00,North,350,7.0,22.0,52,-99.99,,,0.00,471.000000,,2013-04-10 16:33:00,
2013-04-10 12:43:00,72.0,53.0,-100.00,North,350,7.0,22.0,52,-99.99,,,0.00,471.000000,,2013-04-10 16:43:00,
2013-04-10 12:53:00,72.0,53.0,-100.00,North,350,7.0,22.0,52,-99.99,,,0.00,471.000000,,2013-04-10 16:53:00,
2013-04-10 13:03:00,72.0,53.0,-100.00,North,350,7.0,22.0,52,-99.99,,,0.00,471.000000,,2013-04-10 17:03:00,
2013-04-10 13:13:00,72.0,53.0,-100.00,North,350,7.0,22.0,52,-99.99,,,0.00,471.000000,,2013-04-10 17:13:00,
2013-04-10 13:34:00,72.0,54.0,-100.00,NNW,344,11.0,22.0,53,0.00,,,0.00,420.000000,,2013-04-10 17:34:00,
2013-04-10 13:43:00,72.0,54.0,-100.00,NNW,344,11.0,22.0,53,0.00,,,0.00,420.000000,,2013-04-10 17:43:00,
2013-04-10 13:53:00,72.0,54.0,-100.00,NNW,344,11.0,22.0,53,0.00,,,0.00,420.000000,,2013-04-10 17:53:00,
2013-04-10 14:03:00,72.0,54.0,-100.00,NNW,344,11.0,22.0,53,0.00,,,0.00,420.000000,,2013-04-10 18:03:00,
2013-04-10 14:12:00,72.0,54.0,-100.00,NNW,344,11.0,22.0,53,0.00,,,0.00,420.000000,,2013-04-10 18:12:00,
2013-04-10 14:43:00,74.0,56.0,-100.00,NNW,348,12.0,24.0,53,0.00,,,0.00,360.000000,,2013-04-10 18:43:00,
2013-04-10 14:53:00,74.0,56.0,-100.00,NNW,348,12.0,24.0,53,0.00,,,0.00,360.000000,,2013-04-10 18:53:00,
2013-04-10 15:03:00,74.0,56.0,-100.00,NNW,348,12.0,24.0,53,0.00,,,0.00,360.000000,,2013-04-10 19:03:00,
2013-04-10 15:13:00,74.0,56.0,-100.00,NNW,348,12.0,24.0,53,0.00,,,0.00,360.000000,,2013-04-10 19:13:00,
2013-04-10 15:42:00,74.0,54.0,-100.00,North,349,9.0,22.0,49,0.00,,,0.00,406.000000,,2013-04-10 19:42:00,
2013-04-10 15:53:00,74.0,54.0,-100.00,North,349,9.0,22.0,49,0.00,,,0.00,406.000000,,2013-04-10 19:53:00,
2013-04-10 16:03:00,74.0,54.0,-100.00,North,349,9.0,22.0,49,0.00,,,0.00,406.000000,,2013-04-10 20:03:00,
2013-04-10 16:12:00,74.0,54.0,-100.00,North,349,9.0,22.0,49,0.00,,,0.00,406.000000,,2013-04-10 20:12:00,
2013-04-10 16:43:00,58.0,53.0,-100.00,NNW,339,8.0,32.0,82,0.10,,,0.10,12.000000,,2013-04-10 20:43:00,
2013-04-10 16:53:00,58.0,53.0,-100.00,NNW,339,8.0,32.0,82,0.10,,,0.10,12.000000,,2013-04-10 20:53:00,
2013-04-10 17:03:00,58.0,53.0,-100.00,NNW,339,8.0,32.0,82,0.10,,,0.10,12.000000,,2013-04-10 21:03:00,
2013-04-10 17:13:00,58.0,53.0,-100.00,NNW,339,8.0,32.0,82,0.10,,,0.10,12.000000,,2013-04-10 21:13:00,
2013-04-10 17:43:00,64.0,58.0,-100.00,NW,312,17.0,27.0,82,0.00,,,0.10,111.000000,,2013-04-10 21:43:00,
2013-04-10 17:53:00,64.0,58.0,-100.00,NW,312,17.0,27.0,82,0.00,,,0.10,111.000000,,2013-04-10 21:53:00,
2013-04-10 18:03:00,64.0,58.0,-100.00,NW,312,17.0,27.0,82,0.00,,,0.10,111.000000,,2013-04-10 22:03:00,
2013-04-10 18:13:00,64.0,58.0,-100.00,NW,312,17.0,27.0,82,0.00,,,0.10,111.000000,,2013-04-10 22:13:00,
2013-04-10 18:43:00,63.0,52.0,-100.00,North,355,9.0,24.0,68,0.00,,,0.10,129.000000,,2013-04-10 22:43:00,
2013-04-10 18:53:00,63.0,52.0,-100.00,North,355,9.0,24.0,68,0.00,,,0.10,129.000000,,2013-04-10 22:53:00,
2013-04-10 19:03:00,63.0,52.0,-100.00,North,355,9.0,24.0,68,0.00,,,0.10,129.000000,,2013-04-10 23:03:00,
2013-04-10 19:12:00,63.0,52.0,-100.00,North,355,9.0,24.0,68,0.00,,,0.10,129.000000,,2013-04-10 23:12:00,
2013-04-10 19:33:00,62.0,52.0,-100.00,North,2,18.0,36.0,69,0.00,,,0.10,33.000000,,2013-04-10 23:33:00,
2013-04-10 19:43:00,62.0,52.0,-100.00,North,2,18.0,36.0,69,0.00,,,0.10,33.000000,,2013-04-10 23:43:00,
2013-04-10 19:53:00,62.0,52.0,-100.00,North,2,18.0,36.0,69,0.00,,,0.10,33.000000,,2013-04-10 23:53:00,
2013-04-10 20:02:00,62.0,52.0,-100.00,North,2,18.0,36.0,69,0.00,,,0.10,33.000000,,2013-04-11 00:02:00,
2013-04-10 20:13:00,62.0,52.0,-100.00,North,2,18.0,36.0,69,0.00,,,0.10,33.000000,,2013-04-11 00:13:00,
2013-04-10 20:43:00,55.0,53.0,-100.00,North,5,10.0,31.0,94,0.44,,,0.54,0.000000,,2013-04-11 00:43:00,
2013-04-10 20:53:00,55.0,53.0,-100.00,North,5,10.0,31.0,94,0.44,,,0.54,0.000000,,2013-04-11 00:53:00,
2013-04-10 21:02:00,55.0,53.0,-100.00,North,5,10.0,31.0,94,0.44,,,0.54,0.000000,,2013-04-11 01:02:00,
2013-04-10 21:12:00,55.0,53.0,-100.00,North,5,10.0,31.0,94,0.44,,,0.54,0.000000,,2013-04-11 01:12:00,
2013-04-10 21:42:00,55.0,53.0,-100.00,North,7,11.0,24.0,94,0.17,,,0.71,0.000000,,2013-04-11 01:42:00,
2013-04-10 21:52:00,55.0,53.0,-100.00,North,7,11.0,24.0,94,0.17,,,0.71,0.000000,,2013-04-11 01:52:00,
2013-04-10 22:03:00,55.0,53.0,-100.00,North,7,11.0,24.0,94,0.17,,,0.71,0.000000,,2013-04-11 02:03:00,
2013-04-10 22:12:00,55.0,53.0,-100.00,North,7,11.0,24.0,94,0.17,,,0.71,0.000000,,2013-04-11 02:12:00,
2013-04-10 22:53:00,56.0,54.0,-100.00,North,9,11.0,19.0,94,0.09,,,0.80,0.000000,,2013-04-11 02:53:00,
2013-04-10 23:02:00,56.0,54.0,-100.00,North,9,11.0,19.0,94,0.09,,,0.80,0.000000,,2013-04-11 03:02:00,
2013-04-10 23:12:00,56.0,54.0,-100.00,North,9,11.0,19.0,94,0.09,,,0.80,0.000000,,2013-04-11 03:12:00,
2013-04-10 23:43:00,56.0,55.0,-100.00,North,6,11.0,24.0,97,0.23,,,1.03,0.000000,,2013-04-11 03:43:00,
2013-04-10 23:54:00,56.0,55.0,-100.00,North,6,11.0,24.0,97,0.23,,,1.03,0.000000,,2013-04-11 03:54:00,